Location: ???????
(55.4362°N, 38.1183°E)
Time: 15:52:50
(UTC+00:00)

STARS - Visible Passes

Search period start: 03 December 2021 00:00
Search period end: 13 December 2021 00:00
Orbit: 623 x 639 km, 98.2° (Epoch: 02 December)

Date Brightness Start Highest point End Pass type
(mag) Time Alt. Az. Time Alt. Az. Time Alt. Az.
05 Dec ? 04:28:56 10° ENE 04:30:33 12° NE 04:32:11 10° NNE visible
06 Dec ? 04:48:13 10° E 04:50:53 16° NE 04:53:33 10° NNE visible
10 Dec ? 04:35:11 10° ENE 04:37:09 13° NE 04:39:07 10° NNE visible
11 Dec ? 04:54:36 10° E 04:57:29 17° NE 05:00:21 10° NNE visible
